Regional Weather Roundup
Issued by NWS

Home | Current Version | Previous Version | Text Only | Print | Product List | Glossary On
Versions: 1 2 3 4 5 6 7 8 9 10 11 12 13 14 15 16 17 18 19 20 21 22 23 24 25 26 27 28 29 30 31 32 33 34 35 36 37 38 39 40 41 42 43 44 45 46 47 48 49 50
000
ASUS43 KLOT 221108
RWRIL

ILLINOIS REGIONAL WEATHER ROUNDUP
NATIONAL WEATHER SERVICE CHICAGO/ROMEOVILLE IL
500 AM CST SUN JAN 22 2017

NOTE: "FAIR" INDICATES FEW OR NO CLOUDS BELOW 12,000 FEET WITH NO
SIGNIFICANT WEATHER AND/OR OBSTRUCTIONS TO VISIBILITY.

* THESE STATIONS ARE NOT UNDER NWS QUALITY CONTROL. THEY ALSO MAY NOT
  REPORT WEATHER SUCH AS PRECIPITATION OR FOG.

ILZ001-002-007-009-015-016-024-221200-
NORTHWEST ILLINOIS

CITY           SKY/WX    TMP DP  RH WIND       PRES   REMARKS
MOLINE         PTCLDY    31  29  92 CALM      29.59R FOG
STERLING*      FOG       29  29 100 CALM      29.59R VSB 1/2
SAVANNA*       FOG       31  31  99 CALM      29.60R VSB 1/2
$$

ILZ003-004-008-010-011-017-018-221200-
NORTH CENTRAL ILLINOIS

CITY           SKY/WX    TMP DP  RH WIND       PRES   REMARKS
ROCKFORD       FOG       34  33  96 CALM      29.59S VSB 1/8
FREEPORT*      FOG       32  32 100 CALM      29.60R VSB 1/4
ROCHELLE*      FOG       31  31 100 CALM      29.59R VSB 1/4
DE KALB*       FOG       32  32 100 CALM      29.58R VSB 1/2
$$

ILZ005-006-012>014-019>023-221200-
NORTHEAST ILLINOIS

CITY           SKY/WX    TMP DP  RH WIND       PRES   REMARKS
CHICAGO-OHARE  CLOUDY    40  39  97 NW6       29.57F FOG
CHICAGO-MIDWAY CLOUDY    43  40  89 N5        29.57F FOG
AURORA         FOG       32  31  96 CALM      29.58S VSB 1/4
LANSING*       LGT RAIN  38  38 100 N3        29.58S VSB 1/4
JOLIET*        FOG       37  37 100 CALM      29.58S VSB<1/4
WAUKEGAN       FOG       38  38 100 CALM      29.56F VSB 1/2
DUPAGE AIRPORT FOG       34  32  92 CALM      29.57S VSB 1/4
KANKAKEE*      FOG       37  36  98 CALM      29.59R VSB 1/2
WHEELING       CLOUDY    40  38  93 NW6       29.58F
MORRIS*        FOG       33  32  97 CALM      29.57S VSB 1/4
ROMEOVILLE*    FOG       35  35 100 NE6       29.57S VSB<1/4 WCI  30
NORTHERLY ISL    N/A     37  36  96 CALM        N/A
$$

LMZ740>746-221200-
SOUTHERN LAKE MICHIGAN

STATION/POSITION SKY/WX   TEMP    WIND        PRES    VSBY  WAVE
                          AIR SEA DIR/SP/G                  HT/PER
                          (F)     (DEG/KT/KT) (MB)    (MI)  (FT/S)
HARRISON CRIB              40      70/  7/  7   N/A
BURNHAM HARBOR             36      CALM  /  2   N/A
CALUMET HARBOR             37      60/  2/  3 1001.5S
BURNS HARBOR               35      70/  6/  7 1002.4F
MICHIGAN CITY              35      30/  6/  6   N/A
$$

ILZ025>027-034>036-040-047-049-050-058-095>099-221200-
WEST-CENTRAL ILLINOIS

CITY           SKY/WX    TMP DP  RH WIND       PRES   REMARKS
QUINCY         CLOUDY    40  39  97 NE12      29.55F FOG
GALESBURG*     MOCLDY    33  33 100 CALM      29.58R FOG
MACOMB*        FOG       35  35 100 CALM      29.60R VSB 1
JACKSONVILLE*  FOG       40  40 100 N8        29.57R VSB 1/2
PITTSFIELD*    FOG       43  43 100 N7        29.57R VSB 3/4
$$

ILZ028>032-037-038-041>044-048-051>054-059>061-221200-
CENTRAL ILLINOIS

CITY           SKY/WX    TMP DP  RH WIND       PRES   REMARKS
PONTIAC        DRZL/FOG  41  41 100 N7        29.59R VSB 1/4
BLOOMINGTON    LGT RAIN  38  37  97 NE12      29.57R VSB 1/4 WCI  30
DECATUR        CLOUDY    43  42  97 N10       29.53R
PEORIA         CLOUDY    41  41 100 NE5       29.58R FOG
LACON*         DRZL/FOG  37  37 100 N3        29.58R VSB<1/4
LINCOLN*       FOG       39  39 100 N8        29.57R VSB 1/2 WCI  33
SPRINGFIELD    FOG       41  40  96 N12       29.55S VSB 1/2
TAYLORVILLE    CLOUDY    41  40  97 N8        29.53S
$$

ILZ033-039-045-046-055>057-062-063-221200-
EAST-CENTRAL ILLINOIS

CITY           SKY/WX    TMP DP  RH WIND       PRES   REMARKS
CHAMPAIGN      CLOUDY    47  42  83 NE10      29.54R
RANTOUL*       CLOUDY    41  40  97 N6        29.55R FOG
MATTOON        FOG       45  44  97 CALM      29.50F VSB 1/2
PARIS*           N/A     42  42 100 E3        29.54S FOG
$$

ILZ079-100>102-221200-
SOUTHWEST ILLINOIS

CITY           SKY/WX    TMP DP  RH WIND       PRES   REMARKS
ALTON          CLOUDY    46  42  83 N3        29.53R
BELLEVILLE     CLOUDY    46  46 100 W6        29.49S FOG
CAHOKIA*       CLOUDY    50  44  80 N3        29.51R
SPARTA*        CLOUDY    51  50  99 SE3       29.51R
$$

ILZ064>066-069>071-074>076-080>082-084>086-088>090-092>094-221200-
SOUTH-CENTRAL ILLINOIS

CITY           SKY/WX    TMP DP  RH WIND       PRES   REMARKS
CARBONDALE     CLOUDY    45  45 100 N5        29.48F
CAIRO*         CLOUDY    52  49  91 E3        29.47R
EFFINGHAM*     PTCLDY    50  50 100 CALM      29.52S
MARION         CLOUDY    48  48 100 CALM      29.49F
MT. VERNON     CLOUDY    45  44  97 CALM      29.51R
CENTRALIA*     CLOUDY    48  48 100 CALM      29.49S
SALEM*         CLOUDY    52  49  89 CALM      29.50S
METROPOLIS*    CLOUDY    51  49  90 CALM      29.48S
$$

ILZ067-068-072-073-078-083-087-091-221200-
SOUTHEAST ILLINOIS

CITY           SKY/WX    TMP DP  RH WIND       PRES   REMARKS
LAWRENCEVILLE  CLOUDY    47  47 100 E7        29.52S
FLORA*         CLOUDY    50  48  95 CALM      29.51S
FAIRFIELD*     MOCLDY    50  49  95 CALM      29.50R
HARRISBURG*    CLOUDY    48  47  97 CALM      29.50S
ROBINSON*      CLOUDY    45  45 100 SE3       29.53S
CARMI*         CLOUDY    46  46  97 CALM      29.50S
$$

ABBREVIATIONS USED IN REMARKS
   TC - TEMPERATURE IN CELSIUS
  WCI - WIND CHILL INDEX
   HX - HEAT INDEX
  VSB - VISIBILITY
$$




USA.gov is the U.S. government's official web portal to all federal, state and local government web resources and services.